Terminal Aerodrome Forecast
Issued by NWS Pocatello, ID

Home | Current Version | Previous Version | Text Only | Print | Product List | Glossary On
Versions: 1 2 3 4 5 6 7 8 9 10 11 12 13 14 15 16 17 18 19 20
857
FTUS45 KPIH 272320
TAFBYI
TAF
KBYI 272320Z 2800/2824 28025G35KT P6SM BKN050
     FM280300 28015KT P6SM BKN060
     FM280600 24008KT P6SM BKN070
     FM281400 27015KT P6SM SCT060
     FM282000 31015G25KT P6SM BKN060=

USA.gov is the U.S. government's official web portal to all federal, state and local government web resources and services.